[[{"header":{"parameterUnit":"m.s-1","parameterCategory":1,"la1":30.2991,"la2":30.254,"lo1":-89.0895,"lo2":-89.0444,"dy":0.0017,"dx":0.0017,"nx":28,"ny":28,"refTime":"2025-11-20T09:00:00:Z","depth":0,"parameterNumber":2,"parameterNumberName":"U-component_of_WINDS"},"data":[0,0,0,0,0,0,0,0,0,0,0,0,0,0,0,0,0,0,0,0,0,0,0,0,0,0,0,0,0,0,0,0,0,0,0,0,0,0,0,0,0,0,0,0,0,0,0,0,0,0,0,0,0,0,0,0,0,0,0.5036,0.5036,0,0.5037,0.5037,0.5037,0.5026,0.5025,0.5025,0.5025,0.5029,0.5029,0.503,0,0,0,0,0,0,0,0,0,0,0,0,0,0.5024,0.5024,0.5036,0.5036,0.5036,0.5037,0.5037,0.5037,0.5026,0.5025,0.5025,0.5025,0.5029,0.5029,0.503,0,0,0,0,0,0,0,0,0,0,0,0,0,0.5028,0.5024,0.5036,0.503,0.5029,0.5037,0.5037,0.5037,0.5026,0.5025,0.5025,0.5024,0.5029,0.5029,0.503,0.5044,0,0,0.5032,0.5032,0,0,0,0,0,0,0,0,0.5028,0.5028,0.5031,0.503,0.503,0.5031,0.5035,0.504,0.5026,0.5027,0.5025,0.5024,0.503,0.5031,0.5032,0.5044,0.5044,0.5032,0.5032,0.5033,0.5033,0,0,0,0,0,0,0,0.5027,0.5028,0.5036,0.5031,0.503,0.5028,0.5028,0.5036,0.5032,0.5027,0.5026,0.5027,0.503,0.5032,0.5032,0.5044,0.5032,0.5033,0.5033,0.5033,0.5068,0.5069,0,0,0,0,0,0,0.5028,0.5028,0.5036,0.5036,0.5027,0.5029,0.5029,0.5031,0.5032,0.5031,0.5027,0.5026,0.5031,0.5032,0.5032,0.5049,0.5033,0.5033,0.5034,0.5068,0.5068,0.5069,0,0,0,0,0,0,0.5027,0.5028,0.5036,0.5032,0.5033,0.5029,0.5032,0.5031,0.5033,0.5031,0.5031,0.5029,0.503,0.5031,0.5041,0.5049,0.5034,0.5034,0.5067,0.5068,0.5069,0.5082,0,0,0,0,0,0,0.5027,0.5028,0.5033,0.5032,0.5033,0.5044,0.5033,0.5032,0.5034,0.5033,0.5033,0.5033,0.503,0.504,0.5042,0.5049,0.5035,0.5066,0.5067,0.5068,0.5081,0.5083,0.5085,0,0,0,0,0,0.5027,0.5037,0.5034,0.5035,0.5039,0.5045,0.5045,0.5041,0.5035,0.504,0.5039,0.5033,0.5048,0.5041,0.5043,0.5051,0.5066,0.5067,0.5068,0.508,0.5083,0.5085,0,0,0,0,0,0,0.504,0.5037,0.5033,0.5043,0.5044,0.5043,0.5049,0.5044,0.5047,0.5046,0.5041,0.5042,0.5052,0.5053,0.5045,0.5065,0.5056,0.5057,0.5064,0.5067,0.5069,0.5068,0.5035,0,0,0,0,0,0.5044,0.5049,0.5046,0.5056,0.5056,0.5053,0.5055,0.5051,0.5053,0.5053,0.5053,0.5055,0.506,0.5063,0.5068,0.5081,0.5081,0.5087,0.5089,0.5091,0.5092,0.5099,0.5102,0.5073,0.5073,0.5073,0,0,0.5053,0.5052,0.5055,0.5058,0.5059,0.5064,0.5053,0.5059,0.5063,0.5054,0.5063,0.5063,0.5065,0.5076,0.5081,0.5077,0.5101,0.5092,0.5094,0.5094,0.5101,0.5104,0.5106,0.5074,0.5074,0.5074,0,0,0.5072,0.5071,0.5079,0.5079,0.508,0.5077,0.5079,0.5078,0.5077,0.5086,0.508,0.5085,0.5093,0.5095,0.5097,0.5116,0.5111,0.5118,0.5129,0.5136,0.5138,0.514,0.5147,0.5149,0.5119,0.5119,0.5119,0,0.5083,0.5089,0.5084,0.509,0.5092,0.5083,0.5091,0.5092,0.5095,0.5096,0.5091,0.5102,0.5102,0.5114,0.5118,0.512,0.5123,0.5117,0.5138,0.514,0.5142,0.5148,0.5151,0.512,0.512,0.512,0.512,0,0.5103,0.5108,0.5114,0.5116,0.5118,0.5126,0.5121,0.5125,0.5121,0.5119,0.5128,0.5129,0.5133,0.5136,0.5133,0.5147,0.5144,0.5139,0.513,0.5145,0.5152,0.5154,0.5121,0.5121,0.512,0.512,0,0,0.513,0.5128,0.513,0.5131,0.5131,0.5135,0.5142,0.5145,0.5149,0.515,0.5157,0.5164,0.5159,0.5161,0.5158,0.5164,0.5179,0.5157,0.5157,0.5162,0.5195,0.5199,0.5202,0.5176,0.5176,0.5176,0.5195,0,0.5148,0.5159,0.5154,0.5166,0.5171,0.5163,0.5169,0.517,0.5169,0.5173,0.5172,0.5177,0.517,0.5171,0.5177,0.5176,0.5186,0.5174,0.5182,0.5182,0.5182,0.5205,0.521,0.5227,0.5197,0.5198,0.5198,0,0.5171,0.5173,0.5185,0.5184,0.5185,0.5191,0.5194,0.5198,0.5199,0.5198,0.52,0.5195,0.5203,0.5194,0.5205,0.5197,0.52,0.52,0.5201,0.5201,0.5191,0.5207,0.5233,0.5235,0.5202,0.5201,0.5201,0,0.5189,0.5195,0.5203,0.5204,0.5203,0.5207,0.5207,0.5207,0.521,0.5212,0.5214,0.5218,0.522,0.5224,0.5221,0.5214,0.5232,0.5222,0.5231,0.5231,0.5235,0.5235,0.5262,0.5237,0.5237,0.5237,0.5237,0,0.521,0.5218,0.5211,0.5216,0.5225,0.522,0.5229,0.5228,0.5228,0.5233,0.5227,0.5232,0.5228,0.5233,0.523,0.524,0.5241,0.524,0.524,0.5241,0.5241,0.5243,0.5241,0.5238,0.5238,0.5237,0.5237,0,0.5232,0.5228,0.5236,0.5234,0.5234,0.5241,0.5239,0.5244,0.5242,0.5249,0.525,0.5247,0.5253,0.525,0.5256,0.5254,0.5266,0.5264,0.5266,0.5265,0.5274,0.5273,0.5303,0.5307,0.5279,0.528,0.528,0,0.5245,0.5251,0.5249,0.5252,0.5252,0.5257,0.5259,0.5254,0.5257,0.5258,0.5263,0.5268,0.5271,0.528,0.5279,0.5284,0.5282,0.5292,0.5283,0.5284,0.5282,0.5282,0.5282,0.5294,0.5294,0.5295,0.5295,0,0.5269,0.5267,0.527,0.5273,0.5275,0.5277,0.5279,0.5281,0.5277,0.528,0.5285,0.5288,0.5293,0.5298,0.5302,0.5303,0.5298,0.5298,0.53,0.5301,0.5302,0.5302,0.5271,0.5297,0.5297,0.5297,0.5297,0.5297,0.5287,0.5292,0.5292,0.5295,0.5296,0.5297,0.5302,0.53,0.5304,0.5308,0.5305,0.5311,0.5312,0.5317,0.5318,0.5323,0.5319,0.5323,0.5323,0.5324,0.5325,0.5301,0.5324,0.5324,0.5324,0.5324,0.5324,0,0.5311,0.531,0.5314,0.5316,0.5319,0.5313,0.5315,0.5318,0.5323,0.5324,0.5328,0.5334,0.5338,0.5338,0.5342,0.5347,0.5345,0.5348,0.5348,0.5348,0.5329,0.5326,0.5349,0.5349,0.5349,0.5349,0.5349,0.5349,0.5324,0.5331,0.5329,0.5337,0.5336,0.5342,0.5343,0.5345,0.5345,0.5352,0.5356,0.5355,0.5356,0.536,0.5364,0.5364,0.5366,0.537,0.5369,0.5352,0.5349,0.5347,0.5344,0.5371,0.5371,0.5388,0.5388,0.5388]},{"header":{"parameterUnit":"m.s-1","parameterCategory":1,"la1":30.2991,"la2":30.254,"lo1":-89.0895,"lo2":-89.0444,"dy":0.0017,"dx":0.0017,"nx":28,"ny":28,"refTime":"2025-11-20T09:00:00:Z","depth":0,"parameterNumber":3,"parameterNumberName":"V-component_of_WINDS"},"data":[0,0,0,0,0,0,0,0,0,0,0,0,0,0,0,0,0,0,0,0,0,0,0,0,0,0,0,0,0,0,0,0,0,0,0,0,0,0,0,0,0,0,0,0,0,0,0,0,0,0,0,0,0,0,0,0,0,0,3.2484,3.2486,0,3.2697,3.2699,3.2702,3.2775,3.2774,3.2773,3.2772,3.2989,3.2995,3.3002,0,0,0,0,0,0,0,0,0,0,0,0,0,3.2137,3.2143,3.2483,3.2486,3.2489,3.2697,3.27,3.2703,3.2775,3.2774,3.2773,3.2772,3.2987,3.2994,3.3002,0,0,0,0,0,0,0,0,0,0,0,0,0,3.2313,3.2145,3.2483,3.255,3.2558,3.2696,3.27,3.2703,3.2775,3.2774,3.2773,3.2771,3.2984,3.2994,3.3003,3.3089,0,0,3.3033,3.3038,0,0,0,0,0,0,0,0,3.2302,3.2325,3.2537,3.2546,3.2555,3.2708,3.2657,3.2833,3.2775,3.2693,3.2772,3.2771,3.2896,3.2913,3.2956,3.31,3.3109,3.3034,3.304,3.3044,3.3047,0,0,0,0,0,0,0,3.229,3.2316,3.2568,3.254,3.2551,3.2569,3.2593,3.2691,3.2799,3.27,3.2706,3.273,3.2901,3.2946,3.2962,3.3112,3.3034,3.3043,3.3049,3.3053,3.3339,3.3341,0,0,0,0,0,0,3.2267,3.2306,3.2561,3.2574,3.2423,3.2576,3.2603,3.266,3.2798,3.2818,3.2731,3.2733,3.293,3.295,3.2969,3.3082,3.3044,3.3053,3.3059,3.3338,3.334,3.3342,0,0,0,0,0,0,3.2259,3.2289,3.2552,3.2442,3.2477,3.2584,3.2648,3.2665,3.2711,3.2822,3.2841,3.2758,3.293,3.2956,3.306,3.309,3.3058,3.3067,3.3336,3.3338,3.3341,3.3305,0,0,0,0,0,0,3.2249,3.2286,3.232,3.2442,3.2482,3.2639,3.2649,3.267,3.2728,3.2732,3.2852,3.287,3.2931,3.3045,3.307,3.3103,3.3075,3.3334,3.3337,3.334,3.3304,3.3306,3.3308,0,0,0,0,0,3.2236,3.23,3.2321,3.2352,3.2527,3.2641,3.2664,3.2733,3.273,3.2765,3.2837,3.2867,3.3082,3.3055,3.3083,3.312,3.3332,3.3336,3.334,3.3303,3.3306,3.3308,0,0,0,0,0,0,3.2178,3.2317,3.2342,3.2448,3.2532,3.2653,3.27,3.2733,3.2819,3.282,3.2901,3.2927,3.3025,3.3083,3.305,3.3212,3.3209,3.3218,3.3171,3.3174,3.3176,3.3161,3.3083,0,0,0,0,0,3.2177,3.2259,3.2376,3.2458,3.2499,3.2592,3.2644,3.269,3.278,3.2816,3.2895,3.2981,3.3069,3.3124,3.3211,3.3312,3.334,3.3351,3.3353,3.3354,3.3362,3.3422,3.3429,3.3354,3.3354,3.3354,0,0,3.2177,3.2263,3.2309,3.2448,3.2519,3.2601,3.2621,3.2707,3.2769,3.2829,3.2933,3.2994,3.3095,3.3199,3.3248,3.325,3.3389,3.3359,3.3359,3.3367,3.3427,3.3434,3.344,3.3357,3.3357,3.3356,0,0,3.2219,3.2291,3.2369,3.244,3.2547,3.2609,3.2627,3.2744,3.2787,3.2893,3.294,3.3014,3.3162,3.3234,3.3289,3.3359,3.3391,3.3385,3.3395,3.3453,3.3459,3.3464,3.3491,3.35,3.3392,3.3392,3.3392,0,3.2205,3.2331,3.2404,3.2489,3.2549,3.2607,3.2686,3.2751,3.2881,3.2921,3.292,3.311,3.3182,3.3304,3.3321,3.3363,3.3388,3.3372,3.3452,3.3459,3.3465,3.3492,3.3501,3.3391,3.3391,3.3391,3.3391,0,3.231,3.2397,3.2446,3.2572,3.2637,3.2718,3.2803,3.286,3.29,3.2962,3.307,3.3158,3.3265,3.3297,3.3336,3.3425,3.3423,3.3436,3.3435,3.347,3.3496,3.3507,3.3389,3.3389,3.339,3.339,0,0,3.2321,3.2486,3.2504,3.2562,3.2685,3.2754,3.2838,3.2943,3.2992,3.3079,3.3152,3.3277,3.3291,3.3354,3.3401,3.3451,3.3504,3.3459,3.3463,3.3466,3.361,3.3601,3.3611,3.3525,3.3527,3.3529,3.3602,0,3.238,3.2534,3.2603,3.2725,3.2808,3.2865,3.2938,3.3022,3.3082,3.316,3.3225,3.3314,3.3324,3.3363,3.3415,3.3486,3.3534,3.3482,3.3595,3.3598,3.357,3.3625,3.3616,3.368,3.3613,3.3615,3.3616,0,3.2471,3.256,3.2691,3.2807,3.2844,3.2909,3.3012,3.3085,3.3182,3.3222,3.3292,3.3339,3.3429,3.3421,3.3548,3.351,3.3561,3.3603,3.3607,3.3622,3.361,3.3643,3.3703,3.3713,3.3633,3.3631,3.363,0,3.2468,3.2621,3.2721,3.2768,3.2905,3.2949,3.3008,3.3103,3.3162,3.3252,3.3292,3.3389,3.3444,3.3519,3.359,3.3577,3.3711,3.3708,3.3748,3.3746,3.3775,3.3772,3.3845,3.3803,3.3803,3.3803,3.3803,0,3.2529,3.2607,3.2722,3.2783,3.2873,3.295,3.3037,3.31,3.3184,3.3259,3.3313,3.3382,3.3471,3.3551,3.3607,3.3705,3.3728,3.3764,3.3778,3.3761,3.3756,3.3796,3.3794,3.3806,3.3805,3.3804,3.3804,0,3.2542,3.2621,3.2734,3.2854,3.2886,3.2948,3.3051,3.3112,3.3175,3.3269,3.3295,3.3393,3.349,3.3569,3.3695,3.3733,3.3836,3.3851,3.3804,3.3812,3.3849,3.3845,3.3951,3.397,3.3913,3.3913,3.3914,0,3.2576,3.2639,3.2766,3.2821,3.2879,3.2966,3.3027,3.3106,3.3167,3.3282,3.333,3.3432,3.3517,3.367,3.3753,3.385,3.3869,3.39,3.3884,3.3865,3.3873,3.3869,3.3877,3.3902,3.3902,3.3902,3.3902,0,3.263,3.2666,3.2753,3.2855,3.2927,3.301,3.3094,3.3136,3.323,3.3296,3.3397,3.3463,3.3594,3.3694,3.3801,3.3861,3.3898,3.3906,3.3921,3.3905,3.3876,3.3895,3.3811,3.3904,3.3904,3.3904,3.3904,3.3904,3.2656,3.2715,3.2815,3.291,3.2982,3.3061,3.3125,3.3196,3.3282,3.3395,3.3436,3.354,3.3636,3.3783,3.3844,3.3927,3.393,3.3951,3.3957,3.3961,3.396,3.3861,3.3946,3.3946,3.3946,3.3946,3.3946,0,3.2714,3.2782,3.2869,3.2986,3.3062,3.309,3.3185,3.3246,3.3338,3.3424,3.3508,3.3624,3.3723,3.3813,3.3916,3.3964,3.3984,3.3989,3.3987,3.4001,3.395,3.3928,3.3972,3.3972,3.3972,3.3972,3.3972,3.3972,3.2754,3.2856,3.2904,3.3043,3.3109,3.3213,3.3265,3.3337,3.3407,3.3536,3.3618,3.3677,3.3765,3.3875,3.3967,3.3991,3.4027,3.4028,3.4056,3.4008,3.4004,3.4001,3.3981,3.4034,3.4035,3.4101,3.4102,3.4102]}]]